Bryce Canyon, UT

6:22 AM MST on December 13, 2019 (GMT -0700)
Bryce Canyon

Weather History for KBCE - October, 2019

Change the Weather History Date:

Thursday, October 31, 2019

  Actual Average Record
Temperature  
Mean Temperature 21 °F -  
Max Temperature 43 °F 49 °F 63 °F (1962)
Min Temperature 0 °F 23 °F 0 °F (2019)
Degree Days  
Heating Degree Days 44    
Moisture  
Dew Point -12 °F    
Average Humidity 30    
Maximum Humidity 52    
Minimum Humidity 9    
Precipitation  
Precipitation 0.00 in - - ()
Sea Level Pressure  
Sea Level Pressure 30.44 in    
Wind  
Wind Speed 7 mph (SW)    
Max Wind Speed 13 mph    
Max Gust Speed -    
Visibility 10 miles    
Events      
Averages and records for this station are not official NWS values.
T = Trace of Precipitation, MM = Missing Value Source: NWS Daily Summary

Daily Weather History Graph

Daily Weather History Graph

Search for Another Location

Airport or City:

Astronomy

Oct. 31, 2019 Rise Set
Actual Time 7:52 AM MDT 6:31 PM MDT
Civil Twilight 7:25 AM MDT 6:58 PM MDT
Nautical Twilight 6:54 AM MDT 7:29 PM MDT
Astronomical Twilight 6:24 AM MDT 7:59 PM MDT
Moon 11:41 AM MDT (10/31) 9:34 PM MDT (10/31)
Length of Visible Light 11h 32m
Length of Day
10h 38m
Waxing Crescent, 16% of the Moon is Illuminated
Oct 31
Waxing Crescent
Nov 4
First Quarter
Nov 12
Full
Nov 19
Last Quarter
Nov 26
New

Hourly Weather History & Observations

Time (MDT) Temp. Windchill Dew Point Humidity Pressure Visibility Wind Dir Wind Speed Gust Speed Precip Events Conditions
12:53 AM 3.0 °F -6.4 °F -13.0 °F 47% 30.51 in 10.0 mi WSW 4.6 mph - N/A   Clear
1:53 AM 5.0 °F -8.1 °F -11.9 °F 46% 30.50 in 10.0 mi West 8.1 mph - N/A   Clear
2:53 AM 3.9 °F -9.4 °F -11.9 °F 48% 30.48 in 10.0 mi West 8.1 mph - N/A   Clear
3:53 AM 3.9 °F -10.4 °F -11.0 °F 50% 30.46 in 10.0 mi West 9.2 mph - N/A   Clear
4:53 AM 3.0 °F -8.0 °F -11.9 °F 50% 30.47 in 10.0 mi West 5.8 mph - N/A   Clear
5:53 AM -0.9 °F - -15.0 °F 52% 30.51 in 10.0 mi Calm Calm - N/A   Clear
6:53 AM 1.0 °F -10.3 °F -13.0 °F 52% 30.53 in 10.0 mi West 5.8 mph - N/A   Clear
7:53 AM 3.0 °F -8.0 °F -13.0 °F 47% 30.54 in 10.0 mi WSW 5.8 mph - N/A   Clear
8:53 AM 10.0 °F 0.4 °F -11.9 °F 37% 30.58 in 10.0 mi WSW 5.8 mph - N/A   Clear
9:53 AM 24.1 °F - -11.0 °F 21% 30.53 in 10.0 mi Calm Calm - N/A   Clear
10:53 AM 30.9 °F 23.5 °F -8.0 °F 18% 30.48 in 10.0 mi SSE 8.1 mph - N/A   Clear
11:53 AM 33.1 °F 25.5 °F -7.1 °F 18% 30.46 in 10.0 mi SE 9.2 mph - N/A   Clear
12:53 PM 36.0 °F 28.5 °F -9.0 °F 14% 30.43 in 10.0 mi SSE 10.4 mph - N/A   Clear
1:53 PM 39.0 °F 31.4 °F -11.0 °F 12% 30.37 in 10.0 mi SSE 12.7 mph - N/A   Clear
2:53 PM 42.1 °F 35.2 °F -11.9 °F 10% 30.34 in 10.0 mi SE 12.7 mph - N/A   Clear
3:53 PM 42.1 °F 35.2 °F -13.0 °F 9% 30.32 in 10.0 mi SSE 12.7 mph - N/A   Clear
4:53 PM 42.1 °F 35.2 °F -11.9 °F 10% 30.31 in 10.0 mi SSE 12.7 mph - N/A   Clear
5:53 PM 39.0 °F 31.8 °F -9.9 °F 12% 30.35 in 10.0 mi SSE 11.5 mph - N/A   Clear
6:53 PM 28.9 °F 25.2 °F -11.0 °F 17% 30.40 in 10.0 mi West 3.5 mph - N/A   Clear
7:53 PM 19.0 °F 11.1 °F -13.0 °F 24% 30.45 in 10.0 mi SW 5.8 mph - N/A   Clear
8:53 PM 15.1 °F 7.7 °F -13.0 °F 28% 30.44 in 10.0 mi WSW 4.6 mph - N/A   Clear
9:53 PM 16.0 °F 8.8 °F -11.9 °F 28% 30.35 in 10.0 mi SW 4.6 mph - N/A   Clear
10:53 PM 10.9 °F 1.4 °F -11.0 °F 37% 30.34 in 10.0 mi SW 5.8 mph - N/A   Clear
11:53 PM 10.9 °F 4.7 °F -11.0 °F 37% 30.33 in 10.0 mi SW 3.5 mph - N/A   Clear